Oakland, CA

6:12 AM PDT on June 19, 2018 (GMT -0700)
Metro Oakland International

Weather History for KOAK - October, 2017

Change the Weather History Date:

Wednesday, October 4, 2017

  Actual Average Record
Temperature  
Mean Temperature 62 °F 62 °F  
Max Temperature 75 °F 72 °F 92 °F (2014)
Min Temperature 48 °F 53 °F 45 °F (2009)
Degree Days  
Heating Degree Days 3 3  
Month to date heating degree days 12 12  
Since 1 July heating degree days 85 212  
Cooling Degree Days 0 1  
Month to date cooling degree days 0 4  
Year to date cooling degree days 290 129  
Growing Degree Days 10 (Base 50)    
Moisture  
Dew Point 48 °F    
Average Humidity 65    
Maximum Humidity 96    
Minimum Humidity 34    
Precipitation  
Precipitation 0.00 in 0.02 in 0.51 in (2006)
Month to date precipitation 0.00 0.06  
Year to date precipitation 20.12 13.56  
Sea Level Pressure  
Sea Level Pressure 30.05 in    
Wind  
Wind Speed 6 mph (NW)    
Max Wind Speed 14 mph    
Max Gust Speed 16 mph    
Visibility 10 miles    
Events      
T = Trace of Precipitation, MM = Missing Value Source: NWS Daily Summary

Daily Weather History Graph

Daily Weather History Graph

Search for Another Location

Airport or City:

Astronomy

Oct. 04, 2017 Rise Set
Actual Time 7:07 AM PDT 6:46 PM PDT
Civil Twilight 6:41 AM PDT 7:13 PM PDT
Nautical Twilight 6:10 AM PDT 7:43 PM PDT
Astronomical Twilight 5:40 AM PDT 8:13 PM PDT
Moon 6:35 PM PDT (10/4) 5:49 AM PDT (10/4)
Length of Visible Light 12h 31m
Length of Day
11h 39m
Waxing Gibbous, 99% of the Moon is Illuminated
Oct 4
Waxing Gibbous
Oct 5
Full
Oct 12
Last Quarter
Oct 19
New
Oct 27
First Quarter

Hourly Weather History & Observations

Time (PDT) Temp. Dew Point Humidity Pressure Visibility Wind Dir Wind Speed Gust Speed Precip Events Conditions
12:53 AM 53.1 °F 46.9 °F 80% 30.00 in 10.0 mi North 3.5 mph - N/A   Clear
1:53 AM 50.0 °F 46.0 °F 86% 30.01 in 10.0 mi North 4.6 mph - N/A   Clear
2:53 AM 51.1 °F 50.0 °F 96% 30.02 in 10.0 mi NNE 3.5 mph - N/A   Clear
3:53 AM 50.0 °F 48.0 °F 93% 30.03 in 10.0 mi Calm Calm - N/A   Clear
4:53 AM 50.0 °F 46.0 °F 86% 30.04 in 10.0 mi NE 3.5 mph - N/A   Clear
5:53 AM 48.9 °F 45.0 °F 86% 30.06 in 10.0 mi ENE 5.8 mph - N/A   Clear
6:53 AM 48.9 °F 45.0 °F 86% 30.07 in 10.0 mi SE 5.8 mph - N/A   Clear
7:53 AM 52.0 °F 46.0 °F 80% 30.09 in 10.0 mi Calm Calm - N/A   Clear
8:53 AM 57.0 °F 46.9 °F 69% 30.10 in 10.0 mi SE 6.9 mph - N/A   Clear
9:53 AM 61.0 °F 48.0 °F 62% 30.12 in 10.0 mi SSE 6.9 mph - N/A   Clear
10:53 AM 62.1 °F 46.9 °F 58% 30.12 in 10.0 mi SW 6.9 mph - N/A   Partly Cloudy
11:53 AM 64.0 °F 44.1 °F 48% 30.12 in 10.0 mi SSW 4.6 mph - N/A   Partly Cloudy
12:53 PM 68.0 °F 50.0 °F 52% 30.09 in 10.0 mi West 8.1 mph - N/A   Partly Cloudy
1:53 PM 71.1 °F 41.0 °F 34% 30.08 in 10.0 mi WNW 9.2 mph - N/A   Clear
2:53 PM 73.9 °F 52.0 °F 46% 30.05 in 10.0 mi West 9.2 mph - N/A   Partly Cloudy
3:53 PM 73.9 °F 44.1 °F 34% 30.03 in 10.0 mi WNW 11.5 mph - N/A   Partly Cloudy
4:53 PM 72.0 °F 48.0 °F 43% 30.02 in 10.0 mi WNW 12.7 mph - N/A   Partly Cloudy
5:53 PM 68.0 °F 51.1 °F 55% 30.02 in 10.0 mi NW 11.5 mph - N/A   Partly Cloudy
6:53 PM 62.1 °F 51.1 °F 67% 30.02 in 10.0 mi NW 10.4 mph - N/A   Clear
7:53 PM 60.1 °F 50.0 °F 69% 30.03 in 10.0 mi NNW 5.8 mph - N/A   Clear
8:53 PM 59.0 °F 48.9 °F 69% 30.04 in 10.0 mi NW 4.6 mph - N/A   Clear
9:53 PM 57.9 °F 51.1 °F 78% 30.04 in 10.0 mi NNW 6.9 mph - N/A   Clear
10:53 PM 53.1 °F 48.0 °F 83% 30.04 in 10.0 mi Calm Calm - N/A   Clear
11:53 PM 54.0 °F 51.1 °F 90% 30.05 in 10.0 mi Calm Calm - N/A   Clear